TimeCDT,TemperatureF,Dew PointF,Humidity,Sea Level PressureIn,VisibilityMPH,Wind Direction,Wind SpeedMPH,Gust SpeedMPH,PrecipitationIn,Events,Conditions,WindDirDegrees,DateUTC
12:53 AM,84.0,77.0,79,29.99,10.0,WSW,10.4,-,N/A,,Clear,240,2013-08-01 05:53:00
1:53 AM,82.9,77.0,82,29.98,10.0,SW,9.2,-,N/A,,Clear,230,2013-08-01 06:53:00
2:53 AM,82.9,77.0,82,29.97,10.0,WSW,8.1,-,N/A,,Clear,240,2013-08-01 07:53:00
3:53 AM,82.0,75.9,82,29.97,10.0,SW,9.2,-,N/A,,Clear,220,2013-08-01 08:53:00
4:53 AM,82.9,75.0,77,29.97,10.0,SW,10.4,-,N/A,,Clear,230,2013-08-01 09:53:00
5:53 AM,82.9,75.0,77,29.99,10.0,WSW,12.7,-,N/A,,Clear,250,2013-08-01 10:53:00
6:53 AM,82.9,77.0,82,30.00,10.0,West,13.8,-,N/A,,Clear,270,2013-08-01 11:53:00
7:53 AM,84.0,78.1,82,30.00,10.0,West,12.7,-,N/A,,Clear,280,2013-08-01 12:53:00
8:53 AM,84.9,78.1,80,30.01,10.0,West,15.0,-,N/A,,Partly Cloudy,280,2013-08-01 13:53:00
9:53 AM,86.0,78.1,77,30.02,10.0,WNW,15.0,-,N/A,,Scattered Clouds,300,2013-08-01 14:53:00
10:53 AM,87.1,78.1,74,30.02,10.0,WNW,11.5,-,N/A,,Mostly Cloudy,300,2013-08-01 15:53:00
11:53 AM,89.1,77.0,67,30.01,10.0,WNW,12.7,-,N/A,,Scattered Clouds,290,2013-08-01 16:53:00
12:53 PM,89.1,75.9,65,30.00,10.0,NW,11.5,-,N/A,,Scattered Clouds,310,2013-08-01 17:53:00
1:53 PM,89.1,77.0,67,29.99,10.0,NW,8.1,-,N/A,,Scattered Clouds,320,2013-08-01 18:53:00
2:53 PM,90.0,75.9,63,29.96,10.0,NW,6.9,-,N/A,,Scattered Clouds,320,2013-08-01 19:53:00
3:53 PM,90.0,77.0,65,29.93,10.0,West,5.8,-,N/A,,Partly Cloudy,280,2013-08-01 20:53:00
4:53 PM,91.0,75.9,61,29.93,10.0,WNW,6.9,-,N/A,,Partly Cloudy,290,2013-08-01 21:53:00
5:53 PM,90.0,75.9,63,29.92,10.0,West,4.6,-,N/A,,Partly Cloudy,270,2013-08-01 22:53:00
6:53 PM,90.0,75.0,61,29.92,10.0,Calm,Calm,-,N/A,,Scattered Clouds,0,2013-08-01 23:53:00
7:53 PM,89.1,75.9,65,29.92,10.0,WNW,5.8,-,N/A,,Clear,290,2013-08-02 00:53:00
8:53 PM,89.1,75.9,65,29.93,10.0,West,6.9,-,N/A,,Clear,280,2013-08-02 01:53:00
9:48 PM,86.0,75.2,70,29.96,10.0,ENE,12.7,-,N/A,,Mostly Cloudy,70,2013-08-02 02:48:00
9:53 PM,87.1,75.9,69,29.95,10.0,NE,13.8,-,N/A,,Overcast,50,2013-08-02 02:53:00
10:53 PM,84.9,75.9,74,29.95,10.0,ESE,4.6,-,N/A,,Partly Cloudy,110,2013-08-02 03:53:00
11:53 PM,84.0,75.0,74,29.96,10.0,East,8.1,-,N/A,,Clear,90,2013-08-02 04:53:00